Location: Carthage
(33.8834°N, 106.6595°W)
Time: 14:01:39
(UTC+00:00)

CORIOLIS - Pass Details

Date: 13 February 2026
Orbit: 815 x 836 km, 98.7° (Epoch: 11 March)

Event Time Altitude Azimuth Distance (km) Brightness Sun altitude
Rises 13:15:54 0° 14° (NNE) 3,367 7.4 -8.3°
Reaches altitude 10° 13:18:16 10° 15° (NNE) 2,427 6.7 -7.9°
Maximum altitude 13:23:39 80° 103° (ESE) 835 4.3 -6.8°
Drops below altitude 10° 13:28:58 10° 190° (S) 2,401 6.6 -5.7°
Sets 13:31:17 0° 192° (SSW) 3,327 7.3 -5.2°
